Location: Asheville, NC
(35.6000°N, 82.5500°W)
Time: 19:19:09
(UTC-04:00)

Envisat - Pass Details

Date: 13 February 2018
Orbit: 764 x 766 km, 98.2° (Epoch: 27 May)

Event Time Altitude Azimuth Distance (km) Brightness Sun altitude
Exits shadow 18:50:44 - 115° (ESE) 2,730 5.4 -8.9°
Reaches altitude 10° 18:52:19 10° 103° (ESE) 2,295 4.9 -9.2°
Maximum altitude 18:55:24 16° 65° (ENE) 1,889 4.4 -9.8°
Drops below altitude 10° 18:58:29 10° 27° (NNE) 2,303 5.1 -10.4°
Sets 19:01:34 0° 8° (N) 3,233 6.1 -11.0°
